TimeCDT,TemperatureF,Dew PointF,Humidity,Sea Level PressureIn,VisibilityMPH,Wind Direction,Wind SpeedMPH,Gust SpeedMPH,PrecipitationIn,Events,Conditions,WindDirDegrees,DateUTC
12:07 AM,60.8,60.8,100,30.00,2.0,SSE,15.0,-,N/A,,Overcast,160,2013-09-18 05:07:00
12:35 AM,60.8,60.8,100,29.99,2.5,SSE,15.0,-,N/A,,Overcast,160,2013-09-18 05:35:00
12:53 AM,62.1,62.1,100,29.96,2.5,SSE,15.0,-,N/A,,Overcast,160,2013-09-18 05:53:00
1:13 AM,62.6,62.6,100,29.97,3.0,SSE,15.0,-,N/A,,Overcast,160,2013-09-18 06:13:00
1:38 AM,62.6,62.6,100,29.97,2.5,SSE,13.8,21.9,N/A,,Overcast,160,2013-09-18 06:38:00
1:53 AM,62.1,62.1,100,29.96,2.0,South,13.8,-,N/A,,Overcast,170,2013-09-18 06:53:00
2:27 AM,62.6,62.6,100,29.96,1.5,South,13.8,-,N/A,,Overcast,170,2013-09-18 07:27:00
2:53 AM,63.0,63.0,100,29.94,1.5,South,9.2,-,N/A,,Overcast,170,2013-09-18 07:53:00
3:08 AM,62.6,62.6,100,29.95,2.0,South,11.5,-,N/A,,Overcast,170,2013-09-18 08:08:00
3:53 AM,63.0,63.0,100,29.91,3.0,SSE,15.0,-,N/A,,Overcast,160,2013-09-18 08:53:00
4:23 AM,64.4,62.6,94,29.91,3.0,South,13.8,-,N/A,,Overcast,170,2013-09-18 09:23:00
4:53 AM,64.0,63.0,96,29.90,4.0,South,11.5,-,0.00,,Overcast,170,2013-09-18 09:53:00
5:53 AM,64.0,63.0,96,29.89,4.0,South,11.5,-,N/A,,Overcast,170,2013-09-18 10:53:00
6:01 AM,64.4,62.6,94,29.90,4.0,South,12.7,-,N/A,Thunderstorm,Overcast,170,2013-09-18 11:01:00
6:39 AM,64.4,64.4,100,29.90,1.8,SSE,9.2,-,0.16,Rain-Thunderstorm,Heavy Thunderstorms and Rain,150,2013-09-18 11:39:00
6:51 AM,64.4,64.4,100,29.90,2.5,South,16.1,21.9,0.28,Rain-Thunderstorm,Thunderstorms and Rain,170,2013-09-18 11:51:00
6:53 AM,64.9,64.0,97,29.89,3.0,South,16.1,23.0,0.28,Rain-Thunderstorm,Light Thunderstorms and Rain,180,2013-09-18 11:53:00
7:01 AM,66.2,64.4,94,29.90,10.0,South,15.0,26.5,0.00,Rain-Thunderstorm,Light Thunderstorms and Rain,180,2013-09-18 12:01:00
7:29 AM,64.4,64.4,100,29.91,5.0,SSE,6.9,-,0.00,Rain-Thunderstorm,Light Rain,150,2013-09-18 12:29:00
7:35 AM,64.4,64.4,100,29.92,5.0,SSE,8.1,-,0.00,Rain-Thunderstorm,Light Rain,160,2013-09-18 12:35:00
7:53 AM,64.9,64.0,97,29.89,6.0,SSE,8.1,-,0.00,Thunderstorm,Overcast,150,2013-09-18 12:53:00
8:01 AM,64.4,64.4,100,29.90,6.0,SSE,6.9,-,N/A,Thunderstorm,Overcast,160,2013-09-18 13:01:00
8:16 AM,66.2,64.4,94,29.89,9.0,South,9.2,-,N/A,Thunderstorm,Thunderstorm,180,2013-09-18 13:16:00
8:53 AM,64.9,63.0,93,29.87,10.0,SSE,9.2,-,N/A,Thunderstorm,Mostly Cloudy,160,2013-09-18 13:53:00
9:03 AM,66.2,62.6,88,29.89,10.0,South,11.5,-,N/A,,Mostly Cloudy,180,2013-09-18 14:03:00
9:53 AM,70.0,66.9,90,29.86,6.0,South,16.1,-,N/A,,Clear,190,2013-09-18 14:53:00
10:14 AM,69.8,66.2,88,29.88,6.0,South,18.4,25.3,0.01,,Mostly Cloudy,190,2013-09-18 15:14:00
10:37 AM,69.8,66.2,88,29.88,5.0,South,17.3,24.2,0.01,,Overcast,190,2013-09-18 15:37:00
10:53 AM,68.0,66.0,93,29.85,4.0,South,15.0,-,0.01,,Overcast,180,2013-09-18 15:53:00
12:15 PM,71.6,68.0,88,29.85,6.0,South,13.8,21.9,N/A,,Overcast,170,2013-09-18 17:15:00
12:53 PM,75.9,69.1,79,29.82,7.0,South,11.5,-,N/A,,Overcast,180,2013-09-18 17:53:00
1:53 PM,79.0,70.0,74,29.79,9.0,SSE,10.4,-,N/A,,Overcast,150,2013-09-18 18:53:00
2:53 PM,82.9,71.1,67,29.77,10.0,SSE,15.0,21.9,N/A,,Mostly Cloudy,160,2013-09-18 19:53:00
3:08 PM,82.4,71.6,70,29.80,10.0,SSE,15.0,23.0,N/A,,Scattered Clouds,160,2013-09-18 20:08:00
3:53 PM,84.9,71.1,63,29.74,10.0,South,15.0,-,N/A,,Partly Cloudy,170,2013-09-18 20:53:00
4:53 PM,86.0,70.0,59,29.73,10.0,South,17.3,24.2,N/A,,Clear,180,2013-09-18 21:53:00
5:53 PM,84.9,70.0,61,29.72,10.0,South,11.5,-,N/A,,Clear,170,2013-09-18 22:53:00
6:53 PM,80.1,70.0,71,29.73,10.0,South,8.1,-,N/A,,Clear,170,2013-09-18 23:53:00
7:53 PM,75.9,70.0,82,29.75,10.0,South,9.2,-,N/A,,Partly Cloudy,170,2013-09-19 00:53:00
8:53 PM,75.9,69.1,79,29.75,10.0,South,9.2,-,N/A,,Partly Cloudy,170,2013-09-19 01:53:00
9:53 PM,72.0,69.1,91,29.76,10.0,South,6.9,-,N/A,,Partly Cloudy,170,2013-09-19 02:53:00
10:53 PM,73.0,69.1,87,29.75,10.0,SSE,10.4,-,N/A,,Clear,160,2013-09-19 03:53:00
11:53 PM,73.0,69.1,87,29.75,10.0,SSE,11.5,-,N/A,,Mostly Cloudy,160,2013-09-19 04:53:00